Time_in_sec,Mx,My,Mz
1314273260.75434661,-0.29346558,0.50271606,-0.81676161
1314273260.80451512,-0.29340759,0.50046593,-0.81833464
1314273260.85249972,-0.29266697,0.50270975,-0.81698149
1314273260.90447807,-0.29246819,0.50083435,-0.81841654
1314273260.95481873,-0.29297623,0.50347453,-0.81753582
1314273261.00160909,-0.29282582,0.49957210,-0.81776381
1314273261.05646968,-0.29389077,0.50297564,-0.81705332
1314273261.10447121,-0.29224488,0.50081605,-0.81694335
1314273261.15350771,-0.29321954,0.50198776,-0.81953001
1314273261.20362687,-0.29484561,0.50263458,-0.81949484
1314273261.25360394,-0.29241037,0.50258374,-0.81723142
1314273261.30149388,-0.29395261,0.50072408,-0.81836766
1314273261.35349393,-0.29249382,0.50410867,-0.81844234
1314273261.40453458,-0.29210004,0.50269896,-0.81655079
1314273261.45368814,-0.29239795,0.50310874,-0.81922597
1314273261.50554633,-0.29404047,0.50272840,-0.81732553
1314273261.55361938,-0.29325873,0.50285107,-0.81781286
1314273261.60204482,-0.29443195,0.50071812,-0.81733292
1314273261.65251327,-0.29134122,0.50270027,-0.81743681
1314273261.70146203,-0.29306391,0.50147939,-0.81925184
1314273261.75248241,-0.29212794,0.50220132,-0.81707972
1314273261.80569649,-0.29455528,0.50124466,-0.81933522
1314273261.85391021,-0.29214838,0.50185239,-0.81973344
1314273261.90148664,-0.29419121,0.50160110,-0.81772399
1314273261.95359850,-0.29211551,0.50272632,-0.81907427
1314273262.00367999,-0.29389945,0.50010955,-0.81982040
1314273262.05337119,-0.29173809,0.50247586,-0.81958187
1314273262.10593414,-0.29287046,0.50121534,-0.81830961
1314273262.15249014,-0.29332247,0.50185728,-0.81900388
1314273262.20160675,-0.29212853,0.50134557,-0.81946301
1314273262.25375128,-0.29397938,0.50211239,-0.81864500
1314273262.30159664,-0.29182914,0.50184011,-0.81891859
1314273262.35360861,-0.29268536,0.50311494,-0.81950790
1314273262.40209222,-0.29272267,0.50272042,-0.81791407
1314273262.45360661,-0.29372430,0.50226253,-0.82115394
1314273262.50149894,-0.29341403,0.50019127,-0.81620890
1314273262.55248594,-0.29068127,0.50307328,-0.81766742
1314273262.60460067,-0.29485902,0.50223553,-0.81750131
1314273262.65361071,-0.29291415,0.50273263,-0.81885433
1314273262.70061803,-0.29330847,0.50311208,-0.81861413
1314273262.75360680,-0.29238960,0.50094509,-0.81708533
1314273262.80164194,-0.29313093,0.50285101,-0.81793833
1314273262.85258675,-0.29303104,0.50235331,-0.81859267
1314273262.90448236,-0.29306886,0.50210905,-0.81925684
1314273262.95244002,-0.29280126,0.50260967,-0.81924528
1314273263.00159454,-0.29291165,0.50233048,-0.81659436
1314273263.05349469,-0.29284257,0.50171298,-0.81778067
1314273263.10049462,-0.29259706,0.49995440,-0.81841737
1314273263.15252709,-0.29081205,0.50345111,-0.81754494
1314273263.20374036,-0.29253089,0.50072062,-0.81948131
1314273263.25255609,-0.29307172,0.50349283,-0.81913447
1314273263.30062652,-0.29171434,0.50045937,-0.81943280
1314273263.35249496,-0.29202992,0.50296146,-0.81761080
1314273263.40449572,-0.29222041,0.50284773,-0.81855011
1314273263.45368123,-0.29274213,0.50224555,-0.82056677
1314273263.50151420,-0.29293057,0.50170541,-0.81698906
1314273263.55341291,-0.29142824,0.50256675,-0.81664425
1314273263.60158205,-0.29205039,0.50261253,-0.82026452
1314273263.65249562,-0.29275647,0.50297838,-0.81844890
1314273263.70147181,-0.29208064,0.50334835,-0.81841308
1314273263.75349140,-0.29306826,0.50296479,-0.81687355
1314273263.80225658,-0.29242030,0.50283712,-0.81736666
1314273263.85387039,-0.29088420,0.50243455,-0.81661224
1314273263.90447211,-0.29251680,0.50298131,-0.81896627
1314273263.95281768,-0.29279521,0.50386596,-0.81898874
1314273264.00267935,-0.29246706,0.50272036,-0.81816500
1314273264.05258608,-0.29336265,0.50284654,-0.81728774
1314273264.10148358,-0.29315388,0.50172371,-0.81846225
1314273264.15245891,-0.29232487,0.50299340,-0.82028300
1314273264.20161152,-0.29348612,0.50136119,-0.81954056
1314273264.25722909,-0.29252574,0.50310880,-0.81910050
1314273264.30447292,-0.29210466,0.50134104,-0.81906337
1314273264.35326385,-0.29263565,0.50285393,-0.81870663
1314273264.40446281,-0.29192758,0.50223619,-0.82052022
1314273264.45260191,-0.29079020,0.50387299,-0.82166225
1314273264.50550056,-0.29275858,0.50121832,-0.81870151
1314273264.55247974,-0.29417872,0.50313205,-0.81959325
1314273264.60162067,-0.29277596,0.50250351,-0.82110161
1314273264.65362310,-0.29199469,0.50260186,-0.81933194
1314273264.70159960,-0.29232296,0.50173563,-0.82040632
1314273264.75359821,-0.29381025,0.50300908,-0.82023507
1314273264.80252385,-0.29169086,0.50261694,-0.82104057
1314273264.85344005,-0.29178780,0.50273687,-0.82038319
1314273264.90193844,-0.29328313,0.50300586,-0.82047051
1314273264.95349860,-0.29245919,0.50289339,-0.82254672
1314273265.00161052,-0.29214445,0.50134861,-0.81972945
1314273265.05377865,-0.29283857,0.50339568,-0.82204109
1314273265.10160184,-0.29342797,0.50112295,-0.82086307
1314273265.15362144,-0.29306924,0.50427121,-0.82126421
1314273265.20455146,-0.29454377,0.50290155,-0.82120544
1314273265.25348711,-0.29230243,0.50427097,-0.82201701
1314273265.30947638,-0.29244775,0.50236380,-0.82015258
1314273265.35269117,-0.29450557,0.50216419,-0.82292360
1314273265.40161109,-0.29165956,0.50276113,-0.82276565
1314273265.45377111,-0.29266900,0.50313616,-0.82149845
1314273265.50456023,-0.29308620,0.50339425,-0.82165694
1314273265.55360889,-0.29388475,0.50440651,-0.82131177
1314273265.60263872,-0.29182065,0.50286889,-0.82091707
1314273265.65248466,-0.29319915,0.50251120,-0.82139134
1314273265.70173502,-0.29275852,0.50340480,-0.82296586
1314273265.75346756,-0.29265907,0.50288278,-0.82136327
1314273265.80150104,-0.29517093,0.50139058,-0.82056624
1314273265.85245514,-0.29255614,0.50301325,-0.82188940
1314273265.90152955,-0.29253626,0.50250649,-0.82161897
1314273265.95261836,-0.29271024,0.50324541,-0.81990856
1314273266.00409317,-0.29383329,0.50087577,-0.82088435
1314273266.05249453,-0.29261130,0.50287366,-0.82056397
1314273266.10149217,-0.29283613,0.50198764,-0.81990641
1314273266.15299320,-0.29390380,0.50277543,-0.82183176
1314273266.20052695,-0.29294565,0.50075114,-0.82189482
1314273266.25348496,-0.29209313,0.50299793,-0.82093358
1314273266.30046558,-0.29351750,0.50139159,-0.82233047
1314273266.35355258,-0.29195845,0.50211632,-0.82105207
1314273266.40446019,-0.29221404,0.50211644,-0.82080120
1314273266.45262742,-0.29290268,0.50338358,-0.82084984
1314273266.50847530,-0.29302466,0.50162202,-0.82084376
1314273266.54449534,-0.29282719,0.50186014,-0.81977218
1314273266.60640311,-0.29283312,0.50261575,-0.81977814
1314273266.65350842,-0.29273790,0.50576562,-0.82006162
1314273266.70450020,-0.29206032,0.50286591,-0.82039970
1314273266.75350237,-0.29266551,0.50260812,-0.81923753
1314273266.80420446,-0.29305398,0.50122601,-0.81911665
1314273266.85360479,-0.29378736,0.50313044,-0.81983644
1314273266.90550065,-0.29157391,0.50400221,-0.82117689
1314273266.95249152,-0.29317921,0.50301039,-0.82099563
1314273267.00553703,-0.29420167,0.50200474,-0.82011718
1314273267.05373549,-0.29370534,0.50288767,-0.82075924
1314273267.10111713,-0.29369548,0.50162834,-0.82074928
1314273267.15258646,-0.29087836,0.50185353,-0.82112128
1314273267.20155621,-0.29372022,0.50377071,-0.82089937
1314273267.25248098,-0.29270235,0.50223792,-0.81990063
1314273267.30847526,-0.29325736,0.50174350,-0.82019413
1314273267.35249448,-0.29256061,0.50248671,-0.81976163
1314273267.40164328,-0.29330111,0.50225484,-0.82086420
1314273267.45244551,-0.29008049,0.50499099,-0.82096630
1314273267.50166941,-0.29403007,0.50249928,-0.81944728
1314273267.55360985,-0.29233980,0.50287056,-0.82054842
1314273267.60175395,-0.29237512,0.50222415,-0.81895256
1314273267.65359998,-0.29268339,0.50286305,-0.81950593
1314273267.70948100,-0.29310167,0.50224108,-0.81979072
1314273267.75247407,-0.29253763,0.50361407,-0.81923765
1314273267.80162072,-0.29393464,0.50147510,-0.81797397
1314273267.85369492,-0.29192957,0.50248808,-0.82052219
1314273267.90547323,-0.29214385,0.50338483,-0.82173586
1314273267.94531012,-0.29213136,0.50373530,-0.81921542
1314273268.00451374,-0.29234913,0.50397962,-0.81830037
1314273268.05306911,-0.29196975,0.50347733,-0.81880599
1314273268.10550213,-0.29261184,0.50184339,-0.81843227
1314273268.15245533,-0.29104635,0.50284278,-0.81927961
1314273268.20504904,-0.29437321,0.50251615,-0.82066178
1314273268.25379658,-0.29375461,0.50199246,-0.81942785
1314273268.29381418,-0.29170170,0.50282174,-0.81666178
1314273268.35361171,-0.29332042,0.50261134,-0.81887662
1314273268.40449023,-0.29298759,0.50501007,-0.81980473
1314273268.45250535,-0.29142460,0.50523108,-0.81852239
1314273268.50578022,-0.29415697,0.50136745,-0.81944615
1314273268.55349374,-0.29398733,0.50211388,-0.81877822
1314273268.60475826,-0.29253575,0.50235623,-0.81936097
1314273268.65366244,-0.29249990,0.50285232,-0.81869882
1314273268.70451474,-0.29174203,0.50297958,-0.81958586
1314273268.75247669,-0.29165500,0.50311309,-0.82037842
1314273268.80288577,-0.29172027,0.50121498,-0.81943876
1314273268.85353279,-0.29371172,0.50361896,-0.81850815
1314273268.90064979,-0.29386446,0.50274354,-0.81890863
1314273268.95248246,-0.29097864,0.50333285,-0.81808460
1314273269.00158811,-0.29402673,0.49995938,-0.81743693
1314273269.05248308,-0.29264361,0.50285542,-0.81883985
1314273269.09644651,-0.29240444,0.50182813,-0.81722552
1314273269.15248728,-0.29272237,0.50674421,-0.81741285
1314273269.20477653,-0.29482567,0.50313377,-0.81909913
1314273269.25360274,-0.29235005,0.50511152,-0.81817603
1314273269.30149460,-0.29282159,0.50309217,-0.81725866
1314273269.35363054,-0.29389924,0.50312740,-0.81944448
1314273269.40153122,-0.29234722,0.50272179,-0.81842369
1314273269.45380306,-0.29231849,0.50108165,-0.81814432
1314273269.50448203,-0.29312515,0.50008351,-0.81818295
1314273269.55351424,-0.29281113,0.50386906,-0.81925517
1314273269.60344720,-0.29286048,0.50196785,-0.81804907
1314273269.65251637,-0.29324242,0.50186634,-0.81992871
1314273269.70546389,-0.29329017,0.50187552,-0.82072800
1314273269.75246024,-0.29206389,0.50120747,-0.81839627
1314273269.80159664,-0.29240263,0.49956438,-0.81747413
1314273269.85245252,-0.29405296,0.50237793,-0.81984597
1314273269.90560913,-0.29253075,0.50273252,-0.81923074
1314273269.94450355,-0.29172119,0.50234687,-0.81931448
1314273270.00455594,-0.29363114,0.50347781,-0.81717497
1314273270.05246639,-0.29271463,0.50372481,-0.81765556
1314273270.10448742,-0.29262716,0.50270212,-0.81631541
1314273270.15253234,-0.29248405,0.50184333,-0.81855768
1314273270.20160294,-0.29447713,0.50251162,-0.82013667
1314273270.25411224,-0.29296038,0.50246555,-0.81739467
1314273270.30447412,-0.29227263,0.50233030,-0.81722170
1314273270.35361028,-0.29190114,0.50283545,-0.81773525
1314273270.40246081,-0.29059169,0.50381064,-0.81607473
1314273270.45257640,-0.29309431,0.50020337,-0.81765109
1314273270.50497627,-0.29251635,0.50182515,-0.81683362
1314273270.55249405,-0.29226172,0.50195098,-0.81708550
1314273270.60161853,-0.29099023,0.50067002,-0.81633967
1314273270.65375614,-0.29398921,0.50337172,-0.81865489
1314273270.70159721,-0.29094887,0.50257266,-0.81767899
1314273270.75359774,-0.29113981,0.50243461,-0.81636131
1314273270.80453992,-0.29236862,0.50232428,-0.81656337
1314273270.85346961,-0.29204577,0.50397044,-0.81775194
1314273270.90144563,-0.29098016,0.50242853,-0.81595391
1314273270.94447374,-0.29146308,0.50194466,-0.81730539
1314273271.00146270,-0.29216462,0.50384301,-0.81749231
1314273271.05383253,-0.29209504,0.50307524,-0.81642056
1314273271.10446382,-0.29220194,0.50344849,-0.81589842
1314273271.15247536,-0.29139486,0.50346500,-0.81824207
1314273271.20402980,-0.29196331,0.50257146,-0.81654209
1314273271.25381589,-0.29198119,0.50282633,-0.81681049
1314273271.30249667,-0.29354572,0.50170100,-0.81596214
1314273271.35247612,-0.29187378,0.50230283,-0.81507468
1314273271.40162992,-0.29237360,0.50194800,-0.81669360
1314273271.45369434,-0.29072350,0.50330848,-0.81607854
1314273271.50455880,-0.29296347,0.50083148,-0.81764829
1314273271.55362558,-0.29202545,0.50230742,-0.81534886
1314273271.60371208,-0.29381230,0.50107443,-0.81597269
1314273271.65249586,-0.29212788,0.50320727,-0.81695443
1314273271.70060158,-0.29146802,0.50257432,-0.81731039
1314273271.75248718,-0.29207623,0.50168842,-0.81627643
1314273271.80457139,-0.29232579,0.50294483,-0.81576896
1314273271.85245156,-0.29127556,0.50243622,-0.81636906
1314273271.90060282,-0.29276693,0.50220150,-0.81645244
1314273271.94160867,-0.29508522,0.50363761,-0.81885219
1314273272.00154757,-0.29286474,0.50445920,-0.81554544
1314273272.05249524,-0.29133660,0.50405818,-0.81492430
1314273272.10379529,-0.29295683,0.50294346,-0.81500846
1314273272.15350652,-0.29183549,0.50257140,-0.81666756
1314273272.20160198,-0.29044804,0.50280160,-0.81605905
1314273272.25353599,-0.29241651,0.50032151,-0.81761324
1314273272.30154920,-0.29398277,0.50246584,-0.81639099
1314273272.35355735,-0.29259342,0.50143820,-0.81590581
1314273272.40222383,-0.29139230,0.50406879,-0.81585681
1314273272.45255733,-0.29210800,0.50270045,-0.81668401
1314273272.50146627,-0.29154366,0.50090533,-0.81424892
1314273272.55347180,-0.29321349,0.50206351,-0.81488383
1314273272.60131478,-0.29184484,0.50368053,-0.81441945
1314273272.65469384,-0.29259047,0.50106043,-0.81590289
1314273272.70154619,-0.29349297,0.50206816,-0.81503254
1314273272.75360203,-0.29361680,0.50156444,-0.81490308
1314273272.80427861,-0.29325676,0.50141865,-0.81342119
1314273272.85360289,-0.29176480,0.50368959,-0.81534421
1314273272.90550280,-0.29293901,0.50168258,-0.81486529
1314273272.94449711,-0.29302996,0.50205284,-0.81407672
1314273273.00447059,-0.29330051,0.50193000,-0.81409127
1314273273.05646348,-0.29275537,0.50368381,-0.81380767
1314273273.10446191,-0.29336563,0.50204378,-0.81290102
1314273273.15361142,-0.29177624,0.50303864,-0.81334871
1314273273.19382811,-0.29207656,0.50367600,-0.81376886
1314273273.25248742,-0.29285231,0.50380367,-0.81315029
1314273273.30545616,-0.29437014,0.50178921,-0.81162888
1314273273.35246396,-0.29295328,0.50342137,-0.81262219
1314273273.40159893,-0.29146388,0.50390792,-0.81254083
1314273273.44164062,-0.29221845,0.50141531,-0.81415844
1314273273.50160050,-0.29401949,0.50292706,-0.81241381
1314273273.55361938,-0.29276672,0.50403881,-0.81168681
1314273273.60321689,-0.29271308,0.50327408,-0.81088156
1314273273.65259266,-0.29312003,0.50129116,-0.81341243
1314273273.70548081,-0.29272556,0.50292367,-0.81340206
1314273273.75246429,-0.29311100,0.50216967,-0.81315291
1314273273.80509830,-0.29298964,0.50189495,-0.81115264
1314273273.85645628,-0.29315573,0.50280696,-0.81382400
1314273273.90443659,-0.29069608,0.50378180,-0.81329262
1314273273.94466877,-0.29309911,0.50166440,-0.81301576
1314273274.00446391,-0.29319650,0.50294048,-0.81449109
1314273274.05360746,-0.29276583,0.50290692,-0.81181115
1314273274.10548997,-0.29190812,0.50153053,-0.81347781
1314273274.15269494,-0.29401803,0.50282544,-0.81466985
1314273274.19361734,-0.29345414,0.50218648,-0.81436741
1314273274.25371814,-0.29098353,0.50378793,-0.81357455
1314273274.30150008,-0.29172650,0.50277764,-0.81254745
1314273274.35246706,-0.29321539,0.50332135,-0.81476051
1314273274.40349317,-0.29198566,0.50229985,-0.81468278
1314273274.45354295,-0.29296783,0.50231683,-0.81526995
1314273274.50546694,-0.29393110,0.50195301,-0.81558770
1314273274.55246186,-0.29333529,0.50231391,-0.81462711
1314273274.60458589,-0.29230744,0.50153369,-0.81336784
1314273274.65360928,-0.29309666,0.50143683,-0.81527078
1314273274.69355941,-0.29185879,0.50343168,-0.81468391
1314273274.75360966,-0.29286033,0.50279927,-0.81340879
1314273274.80447745,-0.29426369,0.50257212,-0.81428373
1314273274.85246396,-0.29345310,0.50306648,-0.81424111
1314273274.90949488,-0.29298925,0.50091332,-0.81353492
1314273274.94146633,-0.29287472,0.50370663,-0.81580597
1314273275.00059772,-0.29224217,0.50343180,-0.81430751
1314273275.05346608,-0.29253805,0.50341517,-0.81246573
1314273275.10048652,-0.29230145,0.50178403,-0.81323665
1314273275.15247154,-0.29365653,0.50257802,-0.81544393
1314273275.19345641,-0.29168421,0.50354844,-0.81401104
1314273275.25260091,-0.29264650,0.50305867,-0.81432784
1314273275.30058956,-0.29226843,0.50466985,-0.81232685
1314273275.35343647,-0.29179510,0.50341952,-0.81361812
1314273275.40447593,-0.29467690,0.50333238,-0.81431293
1314273275.45345092,-0.29184496,0.50166857,-0.81467003
1314273275.50058389,-0.29087073,0.50265908,-0.81409079
1314273275.55352092,-0.29236960,0.50126970,-0.81217468
1314273275.60446811,-0.29321501,0.50115919,-0.81275308
1314273275.65249228,-0.29283312,0.50143528,-0.81538844
1314273275.69360375,-0.29130489,0.50204015,-0.81464201
1314273275.75244689,-0.29355597,0.50394201,-0.81358975
1314273275.80445886,-0.29238939,0.50278240,-0.81231976
1314273275.85246205,-0.29238939,0.50278240,-0.81231976
1314273275.90446901,-0.29385346,0.50218964,-0.81425744
1314273275.94546151,-0.29213044,0.50142288,-0.81494999
1314273276.00154591,-0.29205760,0.50430113,-0.81337416
1314273276.05345345,-0.29404441,0.50205159,-0.81293976
1314273276.10143280,-0.29237512,0.50104362,-0.81456292
1314273276.15247917,-0.29106259,0.50365293,-0.81264877
1314273276.19346070,-0.29251876,0.50205266,-0.81457859
1314273276.25402117,-0.29292211,0.50155360,-0.81459790
1314273276.30445623,-0.29143605,0.50339967,-0.81213719
1314273276.35242343,-0.29273754,0.50242293,-0.81366450
1314273276.40443420,-0.29419360,0.50283462,-0.81534368
1314273276.44107127,-0.29129884,0.50329649,-0.81438547
1314273276.50547695,-0.29291999,0.50331366,-0.81434530
1314273276.55248523,-0.29368764,0.50545174,-0.81334293
1314273276.60465050,-0.29227757,0.50177944,-0.81283695
1314273276.65401578,-0.29140186,0.50216007,-0.81398463
1314273276.69244766,-0.29333425,0.50319391,-0.81450081
1314273276.75361109,-0.29344612,0.50319093,-0.81410891
1314273276.80453825,-0.29321796,0.50153697,-0.81275606
1314273276.85249472,-0.29420990,0.50381929,-0.81322783
1314273276.90554523,-0.29263565,0.50167340,-0.81431693
1314273276.94455934,-0.29099262,0.50190347,-0.81395936
1314273277.00160074,-0.29310691,0.50367785,-0.81289840
1314273277.05389977,-0.29349631,0.50342762,-0.81265324
1314273277.10460472,-0.29264110,0.50127280,-0.81219018
1314273277.15260124,-0.29245502,0.50304645,-0.81338751
1314273277.20178628,-0.29239589,0.50268233,-0.81470901
1314273277.25253582,-0.29315376,0.50255507,-0.81382197
1314273277.30948496,-0.29355162,0.50127608,-0.81157839
1314273277.35243821,-0.29239637,0.50265801,-0.81245202
1314273277.40449953,-0.29251376,0.50242895,-0.81444836
1314273277.45247030,-0.29174152,0.50164884,-0.81293815
1314273277.50476074,-0.29474011,0.50218838,-0.81324601
1314273277.55360198,-0.29380777,0.50142640,-0.81358540
1314273277.60449958,-0.29269090,0.50052786,-0.81311679
1314273277.65360260,-0.29163697,0.50368959,-0.81546968
1314273277.69351459,-0.29317769,0.50155371,-0.81434697
1314273277.75245404,-0.29377988,0.50192410,-0.81305653
1314273277.80471778,-0.29356605,0.50218350,-0.81397551
1314273277.85245299,-0.29162753,0.50341183,-0.81307751
1314273277.90061140,-0.29341489,0.50232911,-0.81595933
1314273277.94161987,-0.29186675,0.50343323,-0.81481713
1314273278.00309944,-0.29272002,0.50433022,-0.81540346
1314273278.05248094,-0.29238787,0.50368673,-0.81445050
1314273278.10550642,-0.29275450,0.50154597,-0.81405723
1314273278.15250039,-0.29180253,0.50445127,-0.81588304
1314273278.20060873,-0.29192653,0.50193566,-0.81600422
1314273278.25346065,-0.29236367,0.50169456,-0.81655842
1314273278.30159426,-0.29295203,0.50030190,-0.81525409
1314273278.35386801,-0.29262725,0.50169617,-0.81644070
1314273278.40270925,-0.29110789,0.50343448,-0.81570315
1314273278.44151115,-0.29292059,0.50245798,-0.81672859
1314273278.50600934,-0.29357544,0.50346714,-0.81624240
1314273278.55244875,-0.29234612,0.50342727,-0.81378239
1314273278.60448098,-0.29279619,0.50281143,-0.81460005
1314273278.65244818,-0.29261830,0.50156873,-0.81630647
1314273278.69253683,-0.29206714,0.50357288,-0.81589162
